Voltar ao catálogo

SHIYAN 27A

AtivoCiênciaSSO
NORAD 63599·PAYLOAD·🇨🇳 China

Lançado Apr 18, 2025 de Taiyuan Satellite Launch Center

Loading…

Próximas Passagens (próximas 24 horas)

TLE

AtualizadoSource: Space-Track

Época: Sep 14, 2026, 14:10 UTC

1 63599U 25078A   26257.59040368 -.00000007  00000-0  52104-4 0  9995
2 63599  99.6941 263.4866 0000973 106.0783 254.0462 13.57250188 69661

Acompanhe SHIYAN 27A em tempo real com AllMySat

Download on the App Store